This demonstration page uses our WeatherBlox Daily Observations layout. Learn more.

40.92945, -100.16068

Hourly Observations for January 27, 2017

Temp ( °F °C ) Dew Point ( °F °C ) Humidity (%) Winds ( mph kmh ) Pressure ( in mb ) Visibility ( mi km ) Precip ( " mm )
12:15 am 00:15 Partly Cloudy 23 -5 16 -8.7 76 76 WNW 17 28 30.36 1028 10 16.0934 0 0
12:35 am 00:35 Cloudy 23 -5 17 -8.6 76 76 WNW 15 24 30.36 1028 10 16.0934 0 0
12:55 am 00:55 Cloudy 23 -5 17 -8.6 76 76 WNW 15 24 30.36 1028 10 16.0934 0 0
1:15 am 01:15 Cloudy 23 -4.8 17 -8.5 76 76 WNW 16 26 30.33 1027 10 16.0934 0 0
1:35 am 01:35 Cloudy 24 -4.7 17 -8.3 76 76 WNW 14 22 30.33 1027 10 16.0934 0 0
1:55 am 01:55 Cloudy 24 -4.5 17 -8.2 76 76 WNW 14 22 30.33 1027 10 16.0934 0 0
2:15 am 02:15 Cloudy 24 -4.5 17 -8.3 75 75 WNW 15 24 30.33 1027 10 16.0934 0 0
2:35 am 02:35 Mostly Cloudy 23 -5 17 -8.5 77 77 WNW 15 24 30.36 1028 10 16.0934 0 0
2:55 am 02:55 Partly Cloudy 23 -5.1 17 -8.6 77 77 WNW 17 28 30.36 1028 10 16.0934 0 0
3:15 am 03:15 Clear 22 -5.5 16 -8.9 77 77 WNW 16 26 30.36 1028 10 16.0934 0 0
3:35 am 03:35 Clear 22 -5.7 16 -9 78 78 WNW 17 28 30.33 1027 10 16.0934 0 0
3:55 am 03:55 Clear 21 -6 16 -9 80 80 WNW 15 24 30.33 1027 10 16.0934 0 0
4:15 am 04:15 Clear 21 -6.1 15 -9.2 79 79 WNW 13 20 30.33 1027 10 16.0934 0 0
4:35 am 04:35 Clear 21 -6 15 -9.2 78 78 WNW 16 26 30.33 1027 10 16.0934 0 0
4:55 am 04:55 Clear 21 -6.1 15 -9.5 77 77 WNW 14 22 30.33 1027 10 16.0934 0 0
5:15 am 05:15 Clear 21 -6.2 15 -9.5 78 78 WNW 14 22 30.33 1027 10 16.0934 0 0
5:35 am 05:35 Clear 21 -6 15 -9.6 76 76 WNW 16 26 30.33 1027 10 16.0934 0 0
5:55 am 05:55 Clear 21 -6.3 14 -10 75 75 WNW 14 22 30.36 1028 10 16.0934 0 0
6:15 am 06:15 Clear 21 -6.2 14 -10 75 75 WNW 14 22 30.36 1028 10 16.0934 0 0
6:35 am 06:35 Clear 21 -6.2 13 -10.3 73 73 WNW 17 28 30.36 1028 10 16.0934 0 0
6:55 am 06:55 Clear 20 -6.4 13 -10.5 73 73 WNW 15 24 30.39 1029 10 16.0934 0 0
7:15 am 07:15 Clear 21 -6.3 13 -10.6 72 72 WNW 17 28 30.36 1028 10 16.0934 0 0
7:35 am 07:35 Clear 21 -6.3 13 -10.7 71 71 WNW 15 24 30.36 1028 10 16.0934 0 0
7:55 am 07:55 Sunny 20 -6.8 12 -11 72 72 WNW 15 24 30.39 1029 10 16.0934 0 0
8:15 am 08:15 Sunny 19 -7 12 -11 73 73 WNW 13 20 30.39 1029 10 16.0934 0 0
8:35 am 08:35 Sunny 20 -6.6 12 -10.9 72 72 WNW 14 22 30.33 1027 10 16.0934 0 0
8:55 am 08:55 Sunny 22 -5.6 13 -10.7 68 68 WNW 15 24 30.33 1027 10 16.0934 0 0
9:15 am 09:15 Sunny 23 -4.9 13 -10.5 65 65 WNW 17 28 30.33 1027 10 16.0934 0 0
9:35 am 09:35 Sunny 25 -4 13 -10.4 61 61 WNW 20 31 30.33 1027 10 16.0934 0 0
9:55 am 09:55 Sunny 26 -3.3 14 -10.2 59 59 WNW 18 30 30.3 1026 10 16.0934 0 0
10:15 am 10:15 Sunny 27 -2.8 14 -9.9 58 58 WNW 17 28 30.33 1027 10 16.0934 0 0
10:35 am 10:35 Partly Cloudy 28 -2.1 15 -9.3 58 58 WNW 18 30 30.3 1026 10 16.0934 0 0
10:55 am 10:55 Mostly Cloudy 30 -1.2 17 -8.5 58 58 WNW 16 26 30.3 1026 10 16.0934 0 0
11:15 am 11:15 Mostly Cloudy 31 -0.5 17 -8.2 56 56 WNW 18 30 30.3 1026 10 16.0934 0 0
11:35 am 11:35 Partly Cloudy 31 -0.3 17 -8.2 56 56 WNW 18 30 30.27 1025 10 16.0934 0 0
11:55 am 11:55 Sunny 32 0.2 18 -7.6 56 56 WNW 20 31 30.27 1025 10 16.0934 0 0
12:15 pm 12:15 Sunny 33 0.8 19 -7.4 55 55 WNW 18 30 30.27 1025 10 16.0934 0 0
12:35 pm 12:35 Partly Cloudy 34 1.2 19 -7.1 54 54 W 20 31 30.24 1024 10 16.0934 0 0
12:55 pm 12:55 Partly Cloudy 36 2 20 -6.9 52 52 W 17 28 30.21 1023 10 16.0934 0 0
1:15 pm 13:15 Sunny 37 2.5 20 -6.6 51 51 WNW 20 31 30.21 1023 10 16.0934 0 0
1:35 pm 13:35 Sunny 38 3.2 22 -5.4 54 54 NW 21 33 30.18 1022 10 16.0934 0 0
1:55 pm 13:55 Sunny 39 3.8 23 -4.8 54 54 NW 24 39 30.18 1022 10 16.0934 0 0
2:15 pm 14:15 Partly Cloudy 39 3.7 23 -5 53 53 NW 20 31 30.18 1022 10 16.0934 0 0
2:35 pm 14:35 Sunny 39 3.7 24 -4.6 55 55 NW 25 41 30.18 1022 10 16.0934 0 0
2:55 pm 14:55 Sunny 39 3.7 24 -4.5 55 55 NW 23 37 30.18 1022 10 16.0934 0 0
3:15 pm 15:15 Sunny 39 4 24 -4.3 55 55 NW 24 39 30.18 1022 10 16.0934 0 0
3:35 pm 15:35 Sunny 39 4 24 -4.5 54 54 NW 24 39 30.18 1022 10 16.0934 0 0
3:55 pm 15:55 Sunny 39 4 24 -4.5 54 54 NW 24 39 30.18 1022 10 16.0934 0 0
4:15 pm 16:15 Sunny 39 3.8 24 -4.4 55 55 NNW 22 35 30.18 1022 10 16.0934 0 0
4:35 pm 16:35 Sunny 38 3.5 24 -4.4 57 57 NW 22 35 30.18 1022 10 16.0934 0 0
4:55 pm 16:55 Sunny 38 3.2 25 -4.1 59 59 NW 18 30 30.18 1022 10 16.0934 0 0
5:15 pm 17:15 Sunny 37 2.9 24 -4.4 59 59 NW 18 30 30.18 1022 10 16.0934 0 0
5:35 pm 17:35 Sunny 37 2.5 25 -4.1 62 62 NW 17 28 30.21 1023 10 16.0934 0 0
5:55 pm 17:55 Clear 35 1.9 25 -4.1 65 65 NW 18 30 30.21 1023 10 16.0934 0 0
6:15 pm 18:15 Clear 35 1.7 25 -4 66 66 NW 15 24 30.24 1024 10 16.0934 0 0
6:35 pm 18:35 Clear 34 1.2 25 -4 69 69 NW 17 28 30.24 1024 10 16.0934 0 0
6:55 pm 18:55 Clear 34 1.2 25 -3.8 70 70 NW 17 28 30.24 1024 10 16.0934 0 0
7:15 pm 19:15 Clear 34 1 25 -3.8 71 71 NW 14 22 30.24 1024 10 16.0934 0 0
7:35 pm 19:35 Clear 34 1.1 25 -3.8 70 70 NW 15 24 30.24 1024 10 16.0934 0 0
7:55 pm 19:55 Clear 34 1 25 -4 70 70 NW 18 30 30.24 1024 10 16.0934 0 0
8:15 pm 20:15 Clear 33 0.4 25 -4 73 73 NW 15 24 30.24 1024 10 16.0934 0 0
8:35 pm 20:35 Clear 32 0.1 24 -4.3 73 73 WNW 17 28 30.24 1024 10 16.0934 0 0
8:55 pm 20:55 Clear 32 0.1 24 -4.5 72 72 NW 21 33 30.24 1024 10 16.0934 0 0
9:15 pm 21:15 Partly Cloudy 32 0 24 -4.5 72 72 NW 18 30 30.27 1025 10 16.0934 0 0
9:35 pm 21:35 Cloudy 32 0 24 -4.4 73 73 NW 15 24 30.27 1025 10 16.0934 0 0
9:55 pm 21:55 Partly Cloudy 31 -0.4 24 -4.5 74 74 NW 16 26 30.27 1025 10 16.0934 0 0
10:15 pm 22:15 Mostly Cloudy 31 -0.5 24 -4.6 74 74 WNW 17 28 30.27 1025 10 16.0934 0 0
10:35 pm 22:35 Mostly Cloudy 31 -0.5 24 -4.5 75 75 NW 16 26 30.27 1025 10 16.0934 0 0
10:55 pm 22:55 Cloudy 31 -0.6 24 -4.5 75 75 WNW 17 28 30.27 1025 10 16.0934 0 0
11:15 pm 23:15 Partly Cloudy 30 -1 24 -4.5 77 77 WNW 14 22 30.3 1026 10 16.0934 0 0
11:35 pm 23:35 Clear 29 -1.5 24 -4.5 80 80 NW 14 22 30.3 1026 10 16.0934 0 0
11:55 pm 23:55 Clear 29 -1.5 24 -4.4 81 81 WNW 13 20 30.3 1026 10 16.0934 0 0

Powered by AerisWeather